Location: Newark
(30.1000°N, 109.4667°E)
Time: 01:47:36
(UTC+00:00)

A-11 Canister half - Pass Details

Date: 22 February 2020
Orbit: 1516 x 1683 km, 47.2° (Epoch: 08 April)

Event Time Altitude Azimuth Distance (km) Brightness Sun altitude
Rises 12:00:23 0° 298° (WNW) 4,858 12.7 -19.1°
Reaches altitude 10° 12:04:14 10° 309° (NW) 3,845 11.8 -19.9°
Maximum altitude 12:12:21 28° 6° (N) 2,620 10.1 -21.7°
Enters shadow 12:16:58 20° 46° (NE) 3,042 10.1 -22.7°
